Location: Unspecified
(43.8044°N, 11.0278°E)
Time: 17:24:05
(UTC+02:00)

Cosmos 2058 - Visible Passes

Search period start: 31 July 2015 00:00
Search period end: 10 August 2015 00:00
Orbit: 565 x 590 km, 82.5° (Epoch: 31 July)

Date Brightness Start Highest point End Pass type
(mag) Time Alt. Az. Time Alt. Az. Time Alt. Az.
31 Jul 2.9 04:41:55 10° N 04:46:04 89° W 04:50:12 10° S visible
01 Aug 5.9 03:11:32 10° NE 03:12:46 11° ENE 03:14:11 10° E visible
01 Aug 2.9 04:46:14 10° NNW 04:50:20 65° W 04:54:25 10° S visible
02 Aug 5.7 03:14:52 10° NNE 03:17:13 15° ENE 03:19:43 10° ESE visible
02 Aug 3.2 04:50:36 10° NNW 04:54:35 46° W 04:58:32 10° SSW visible
03 Aug 5.4 03:18:38 10° NNE 03:21:38 20° ENE 03:24:46 10° ESE visible
03 Aug 3.6 04:55:02 10° NNW 04:58:48 34° W 05:02:10 12° SSW visible
04 Aug 4.9 03:22:34 10° NNE 03:26:02 26° ENE 03:29:24 11° SE visible
04 Aug 4.0 04:59:34 10° NNW 05:03:01 25° W 05:05:38 14° SW visible
05 Aug 4.4 03:26:36 10° N 03:30:24 34° ENE 03:32:57 18° SE visible
05 Aug 4.4 05:04:13 10° NW 05:07:13 19° W 05:09:11 14° WSW visible
06 Aug 3.8 03:30:43 10° N 03:34:44 47° ENE 03:36:33 28° SE visible
06 Aug 4.8 05:09:05 10° NW 05:11:23 14° W 05:12:48 12° WSW visible
07 Aug 3.2 03:34:54 10° N 03:39:02 65° E 03:40:13 43° SE visible
07 Aug 5.0 05:14:40 10° WNW 05:15:33 10° W 05:16:12 10° W visible
08 Aug 2.8 03:39:09 10° N 03:43:19 89° E 03:43:56 64° S visible
09 Aug 5.7 02:08:49 10° NE 02:10:00 11° ENE 02:11:24 10° E visible
09 Aug 2.8 03:43:26 10° NNW 03:47:34 66° W 03:47:41 66° WSW visible
